Regional Weather Roundup
Issued by NWS

Home | Current Version | Previous Version | Graphics & Text | Print | Product List | Glossary Off
Versions: 1 2 3 4 5 6 7 8 9 10 11 12 13 14 15 16 17 18 19 20 21 22 23 24 25 26 27 28 29 30 31 32 33 34 35 36 37 38 39 40 41 42 43 44 45 46 47 48 49 50

000
ASUS43 KMKX 220321
RWRWI

WISCONSIN REGIONAL WEATHER ROUNDUP
NATIONAL WEATHER SERVICE MILWAUKEE/SULLIVAN WI
1000 PM CDT TUE OCT 21 2014

NOTE: "FAIR" INDICATES FEW OR NO CLOUDS BELOW 12,000 FEET WITH NO
SIGNIFICANT WEATHER AND/OR OBSTRUCTIONS TO VISIBILITY.

WIZ001-002-006>008-014>016-023>028-220400-
NORTHWEST WISCONSIN

CITY           SKY/WX    TMP DP  RH WIND       PRES   REMARKS
SUPERIOR ARPT  CLEAR     38  36  91 CALM      30.23R
ASHLAND        CLEAR     32  31  96 CALM      30.25R
HAYWARD        CLEAR     43  34  70 CALM      30.23R
SIREN          CLEAR     39  36  87 SE6       30.21S
CUMBERLAND     CLEAR     41  34  75 SE7       30.22R
RICE LAKE      CLEAR     42  36  76 SE7       30.24R
CHETEK         CLEAR     41  36  81 SE3       30.24R
LADYSMITH      CLEAR     41  35  78 SE3       30.26R
EAU CLAIRE     CLEAR     42  34  73 SE3       30.24R
MENOMONIE      CLEAR     41  35  79 E7        30.23R
NEW RICHMOND   CLEAR     42  35  75 SE3       30.20S
OSCEOLA        CLEAR     44  37  76 SE8       30.22R
$$

WIZ003>005-009-010-017-018-220400-
NORTH CENTRAL WISCONSIN

CITY           SKY/WX    TMP DP  RH WIND       PRES   REMARKS
MANITOWISH WTR CLEAR     29  29 100 CALM      30.24S FOG
ARBOR VITAE    CLEAR     34  33  93 SE5       30.25S WCI  30
WOODRUFF       CLEAR     34  33  93 SE5       30.25S WCI  30
RHINELANDER    CLEAR     33  32  96 SE3       30.26R
EAGLE RIVER    CLEAR     29  29 100 CALM      30.26R FOG
LAND O LAKES   CLEAR     29  28  98 CALM      30.27R
PHILLIPS       CLEAR     32  31  98 CALM      30.24R
TOMAHAWK       CLEAR     29  28  96 CALM      30.26R
MEDFORD        CLEAR     34  32  92 SE3       30.25R
MERRILL        CLEAR     32  31  98 SE3       30.26S
$$

WIZ029-030-035-036-043>047-220400-
CENTRAL WISCONSIN

CITY           SKY/WX    TMP DP  RH WIND       PRES   REMARKS
WAUSAU         CLEAR     39  33  79 E5        30.25S
MOSINEE        CLEAR     37  34  87 CALM      30.27R
MARSHFIELD     CLEAR     40  33  76 SE6       30.25R
STEVENS POINT  CLEAR     32  30  94 CALM      30.28R
WAUPACA        CLEAR     36  34  92 CALM      30.29R
WAUTOMA        CLEAR     31  30  96 CALM      30.29R
WISC RAPIDS    CLEAR     32  31  96 SE5       30.28R WCI  27
CAMP DOUGLAS   CLEAR     30  30 100 E2        30.26S
$$

WIZ011>013-019>022-031-037>040-048>050-220400-
NORTHEAST WISCONSIN

CITY           SKY/WX    TMP DP  RH WIND       PRES   REMARKS
ANTIGO         CLEAR     35  31  85 E7        30.27S WCI  30
SHAWANO        CLEAR     40  36  86 CALM      30.29S
OCONTO         CLEAR     33  33 100 CALM      30.30R
STURGEON BAY   CLEAR     39  32  75 NE6       30.30S WCI  35
GREEN BAY      CLEAR     35  33  92 CALM      30.29R
MANITOWOC      CLEAR     35  35 100 CALM      30.30R
APPLETON       CLEAR     41  30  65 VRB5      30.28R
CLINTONVILLE   CLEAR     36  32  87 CALM      30.29R
OSHKOSH        CLEAR     39  35  86 S5        30.28R
$$

WIZ032>034-041-042-053>061-220400-
SOUTHWEST WISCONSIN

CITY           SKY/WX    TMP DP  RH WIND       PRES   REMARKS
LA CROSSE      CLEAR     45  36  70 SE6       30.25R
SPARTA         CLEAR     34  33  95 CALM      30.27R
VIROQUA        CLEAR     39  36  87 SE3       30.25R
BOSCOBEL       CLEAR     40  35  83 CALM      30.27R
PRAIRIE DU CHI CLEAR     44  35  72 E3        30.26R
PLATTEVILLE    CLEAR     38  36  89 E7        30.26S WCI  33
$$

WIZ056-057-062-063-064-067-068-220400-
SOUTH CENTRAL WISCONSIN

CITY           SKY/WX    TMP DP  RH WIND       PRES   REMARKS
REEDSBURG      CLEAR     35  34  95 CALM      30.27R
BARABOO/DELLS  CLEAR     34  32  92 CALM      30.27S
LONE ROCK      CLEAR     39  32  76 E5        30.27S
MINERAL POINT  FAIR      39  36  87 E6        30.26S WCI  35
MADISON        CLEAR     34  32  92 CALM      30.29R
MIDDLETON      CLEAR     35  34  99 CALM      30.28R
WATERTOWN      CLEAR     33  33 100 E3        30.28R
MONROE         CLEAR     39  36  87 NE6       30.27R WCI  35
JANESVILLE     CLEAR     37  36  93 CALM      30.28R
$$

WIZ051-052-058>065-066-070>072-220400-
SOUTHEAST WISCONSIN

CITY           SKY/WX    TMP DP  RH WIND       PRES   REMARKS
MILWAUKEE      CLEAR     45  33  63 NE10      30.28R
WAUKESHA       CLEAR     34  32  93 CALM      30.29S
MILWAUKEE/TIMM CLEAR     36  32  87 CALM      30.29R
RACINE         CLEAR     43  36  76 NE8       30.29R
BURLINGTON     CLEAR     31  31  99 CALM      30.28S FOG
KENOSHA        CLEAR     37  35  92 NE6       30.27S WCI  32
FOND DU LAC    CLEAR     36  33  89 S3        30.28R
SHEBOYGAN      CLEAR     35  33  92 N3        30.29R
WEST BEND      CLEAR     32  32 100 CALM      30.28S
JUNEAU         CLEAR     37  34  89 E3        30.29S
$$

LSZ147-162-220400-
LAKE SUPERIOR

STATION/POSITION TIME  TEMP    WIND        PRES    WAVE
                       AIR SEA DIR/SP/G            HT/PER
                 (UTC) (F)     (DEG/KT/KT) (MB)    (FT/S)
W MID LAKE BUOY  0250   44 46  120/ 14/ 16 1025.3R   2/ 4
DEVILS ISLAND    0300   45     110/ 11/ 13 1025.1R
PORT WING        0200   41      70/  1/  5 1023.7R
SAXON HARBOR     0200   35        CALM     1024.0R
$$

LMZ867-665-643>646-220400-
LAKE MICHIGAN

STATION/POSITION TIME  TEMP    WIND        PRES    WAVE
                       AIR SEA DIR/SP/G            HT/PER
                 (UTC) (F)     (DEG/KT/KT) (MB)    (FT/S)
CHAMBERS ISLAND  0200   45      30/ 11/ 16 1026.1R
N MID LAKE BUOY  0250   45 51   50/ 12/ 14 1026.5R   2/ 4
NORTHPORT PIER   0200   44      20/  8/ 12 1025.7R
SISTER BAY       0212           60/  4/  7   N/A
KEWAUNEE LAKESHO 0300   46      60/  6/ 10 1024.7R
SHEBOYGAN LAKESH 0300   47 49   50/ 16/ 18 1026.2R
PORT WASHINGTON  0200   43     330/  3/  5 1026.1
ATWATER BUOY     0300   49      40/ 16/ 19 1026.2R
MILWAUKEE LAKESH 0300   48      40/ 14/ 17   N/A
S MID LAKE BUOY  0250   49 54   20/ 14/ 16 1024.9R   5/ 6
KENOSHA   LAKESH 0300   48      40/ 13/ 16 1024.7S
$$

TC  - TEMPERATURE IN CELSIUS
VSB - VISIBILITY IN STATUTE MILES
WCI - WIND CHILL INDEX
HX  - HEAT INDEX




USA.gov is the U.S. government's official web portal to all federal, state and local government web resources and services.